Weather History for Russellville, AR

Change the Weather History Date:

Monday, October 17, 2011

  Actual Average (KHOT) Record (KHOT)
Temperature  
Mean Temperature 68 °F -  
Max Temperature 86 °F 74 °F 90 °F (1953)
Min Temperature 53 °F 49 °F 34 °F (2001)
Cooling Degree Days 4    
Growing Degree Days 18 (Base 50)    
Moisture  
Dew Point 54 °F    
Average Humidity 64    
Maximum Humidity 96    
Minimum Humidity 31    
Precipitation  
Precipitation 0.00 in - - ()
Sea Level Pressure  
Sea Level Pressure 29.79 in    
Wind  
Wind Speed 2 mph (ESE)    
Max Wind Speed 8 mph    
Max Gust Speed 17 mph    
Visibility 9 miles    
Events      
Averages and records for this station are not official NWS values.
T = Trace of Precipitation, MM = Missing Value Source: NWS Daily Summary

Daily Weather History Graph

Daily Weather History Graph

Search for Another Location

Airport:

Trip Planner

Search our weather history database for the weather conditions in past years. The results will help you decide how hot, cold, wet, or windy it might be!

Date:

Astronomy

Oct. 17, 2011 Rise Set
Actual Time 7:20 AM CDT 6:34 PM CDT
Civil Twilight 6:54 AM CDT 7:00 PM CDT
Nautical Twilight 6:24 AM CDT 7:30 PM CDT
Astronomical Twilight 5:55 AM CDT 7:59 PM CDT
Moon 10:25 PM CDT (10/17) 12:17 PM CDT (10/17)
Length of Visible Light 12h 06m
Length of Day
11h 14m
Waning Gibbous, 74% of the Moon is Illuminated
Oct 17
Waning Gibbous
Oct 19
Last Quarter
Oct 26
New
Nov 2
First Quarter
Nov 10
Full

Hourly Weather History & Observations

Time (CDT) Temp. Heat Index Dew Point Humidity Pressure Visibility Wind Dir Wind Speed Gust Speed Precip Events Conditions
12:53 AM 61.0 °F - 55.0 °F 81% 29.91 in 10.0 mi Calm Calm - N/A   Clear
1:53 AM 59.0 °F - 54.0 °F 83% 29.91 in 10.0 mi Calm Calm - N/A   Clear
3:53 AM 55.9 °F - 53.1 °F 90% 29.89 in 9.0 mi Calm Calm - N/A   Clear
5:53 AM 54.0 °F - 52.0 °F 93% 29.90 in 6.0 mi Calm Calm - N/A   Clear
6:53 AM 53.1 °F - 52.0 °F 96% 29.91 in 6.0 mi Calm Calm - N/A   Clear
7:53 AM 53.1 °F - 51.1 °F 93% 29.91 in 4.0 mi Calm Calm - N/A   Clear
9:53 AM 68.0 °F - 53.1 °F 59% 29.91 in 10.0 mi East 8.1 mph - N/A   Clear
10:53 AM 70.0 °F - 54.0 °F 57% 29.89 in 10.0 mi Variable 4.6 mph - N/A   Clear
11:53 AM 73.9 °F - 54.0 °F 50% 29.86 in 10.0 mi ESE 6.9 mph - N/A   Clear
12:53 PM 78.1 °F - 54.0 °F 43% 29.82 in 10.0 mi East 5.8 mph - N/A   Clear
2:53 PM 84.0 °F 83.0 °F 55.9 °F 38% 29.73 in 10.0 mi East 6.9 mph - N/A   Clear
3:53 PM 84.9 °F 83.6 °F 55.0 °F 36% 29.70 in 10.0 mi Variable 6.9 mph 17.3 mph N/A   Clear
4:53 PM 84.9 °F - 51.1 °F 31% 29.68 in 10.0 mi South 4.6 mph - N/A   Partly Cloudy
5:53 PM 84.0 °F 82.5 °F 53.1 °F 34% 29.67 in 10.0 mi Variable 3.5 mph - N/A   Clear
6:53 PM 73.9 °F - 55.9 °F 53% 29.68 in 10.0 mi Calm Calm - N/A   Clear
7:53 PM 72.0 °F - 55.9 °F 57% 29.69 in 10.0 mi Calm Calm - N/A   Clear
8:53 PM 68.0 °F - 55.9 °F 65% 29.68 in 10.0 mi Calm Calm - N/A   Clear
9:53 PM 66.0 °F - 57.0 °F 73% 29.70 in 10.0 mi Calm Calm - N/A   Partly Cloudy
10:53 PM 68.0 °F - 57.0 °F 68% 29.70 in 10.0 mi Calm Calm - N/A   Partly Cloudy
11:53 PM 69.1 °F - 59.0 °F 70% 29.69 in 10.0 mi Calm Calm - N/A   Unknown